Year,Month,Day,Hour,Minute,Value (Times are PST for temperature in C)
2017,01,13,00,00,-5.40
2017,01,13,00,01,-5.40
2017,01,13,00,02,-5.40
2017,01,13,00,03,-5.40
2017,01,13,00,04,-5.40
2017,01,13,00,05,-5.40
2017,01,13,00,06,-5.40
2017,01,13,00,07,-5.40
2017,01,13,00,08,-5.40
2017,01,13,00,09,-5.50
2017,01,13,00,10,-5.40
2017,01,13,00,11,-5.50
2017,01,13,00,12,-5.50
2017,01,13,00,13,-5.50
2017,01,13,00,14,-5.50
2017,01,13,00,15,-5.50
2017,01,13,00,16,-5.50
2017,01,13,00,17,-5.50
2017,01,13,00,18,-5.60
2017,01,13,00,19,-5.60
2017,01,13,00,20,-5.60
2017,01,13,00,21,-5.60
2017,01,13,00,22,-5.60
2017,01,13,00,23,-5.60
2017,01,13,00,24,-5.60
2017,01,13,00,25,-5.60
2017,01,13,00,26,-5.60
2017,01,13,00,27,-5.60
2017,01,13,00,28,-5.60
2017,01,13,00,29,-5.60
2017,01,13,00,30,-5.60
2017,01,13,00,31,-5.60
2017,01,13,00,32,-5.70
2017,01,13,00,33,-5.70
2017,01,13,00,34,-5.70
2017,01,13,00,35,-5.70
2017,01,13,00,36,-5.70
2017,01,13,00,37,-5.70
2017,01,13,00,38,-5.70
2017,01,13,00,39,-5.70
2017,01,13,00,40,-5.70
2017,01,13,00,41,-5.70
2017,01,13,00,42,-5.70
2017,01,13,00,43,-5.70
2017,01,13,00,44,-5.70
2017,01,13,00,45,-5.80
2017,01,13,00,46,-5.80
2017,01,13,00,47,-5.80
2017,01,13,00,48,-5.80
2017,01,13,00,49,-5.80
2017,01,13,00,50,-5.80
2017,01,13,00,51,-5.80
2017,01,13,00,52,-5.80
2017,01,13,00,53,-5.80
2017,01,13,00,54,-5.80
2017,01,13,00,55,-5.80
2017,01,13,00,56,-5.80
2017,01,13,00,57,-5.90
2017,01,13,00,58,-5.90
2017,01,13,00,59,-5.90
2017,01,13,01,00,-5.90
2017,01,13,01,01,-5.90
2017,01,13,01,02,-5.90
2017,01,13,01,03,-5.90
2017,01,13,01,04,-5.90
2017,01,13,01,05,-5.90
2017,01,13,01,06,-5.90
2017,01,13,01,07,-5.80
2017,01,13,01,08,-5.80
2017,01,13,01,09,-5.90
2017,01,13,01,10,-5.80
2017,01,13,01,11,-5.80
2017,01,13,01,12,-5.80
2017,01,13,01,13,-5.80
2017,01,13,01,14,-5.80
2017,01,13,01,15,-5.80
2017,01,13,01,16,-5.80
2017,01,13,01,17,-5.80
2017,01,13,01,18,-5.80
2017,01,13,01,19,-5.80
2017,01,13,01,20,-5.80
2017,01,13,01,21,-5.90
2017,01,13,01,22,-5.90
2017,01,13,01,23,-5.90
2017,01,13,01,24,-5.90
2017,01,13,01,25,-5.90
2017,01,13,01,26,-5.90
2017,01,13,01,27,-5.90
2017,01,13,01,28,-5.90
2017,01,13,01,29,-5.90
2017,01,13,01,30,-5.90
2017,01,13,01,31,-5.90
2017,01,13,01,32,-5.90
2017,01,13,01,33,-5.90
2017,01,13,01,34,-5.90
2017,01,13,01,35,-5.90
2017,01,13,01,36,-5.90
2017,01,13,01,37,-5.90
2017,01,13,01,38,-5.90
2017,01,13,01,39,-5.90
2017,01,13,01,40,-5.90
2017,01,13,01,41,-6.00
2017,01,13,01,42,-6.00
2017,01,13,01,43,-6.00
2017,01,13,01,44,-6.00
2017,01,13,01,45,-6.00
2017,01,13,01,46,-6.00
2017,01,13,01,47,-6.00
2017,01,13,01,48,-6.00
2017,01,13,01,49,-6.00
2017,01,13,01,50,-6.00
2017,01,13,01,51,-6.10
2017,01,13,01,52,-6.10
2017,01,13,01,53,-6.10
2017,01,13,01,54,-6.10
2017,01,13,01,55,-6.10
2017,01,13,01,56,-6.10
2017,01,13,01,57,-6.10
2017,01,13,01,58,-6.10
2017,01,13,01,59,-6.10
2017,01,13,02,00,-6.10
2017,01,13,02,01,-6.10
2017,01,13,02,02,-6.10
2017,01,13,02,03,-6.10
2017,01,13,02,04,-6.10
2017,01,13,02,05,-6.10
2017,01,13,02,06,-6.20
2017,01,13,02,07,-6.20
2017,01,13,02,08,-6.20
2017,01,13,02,09,-6.20
2017,01,13,02,10,-6.20
2017,01,13,02,11,-6.20
2017,01,13,02,12,-6.20
2017,01,13,02,13,-6.20
2017,01,13,02,14,-6.20
2017,01,13,02,15,-6.20
2017,01,13,02,16,-6.20
2017,01,13,02,17,-6.20
2017,01,13,02,18,-6.20
2017,01,13,02,19,-6.20
2017,01,13,02,20,-6.20
2017,01,13,02,21,-6.20
2017,01,13,02,22,-6.20
2017,01,13,02,23,-6.20
2017,01,13,02,24,-6.30
2017,01,13,02,25,-6.30
2017,01,13,02,26,-6.30
2017,01,13,02,27,-6.30
2017,01,13,02,28,-6.30
2017,01,13,02,29,-6.30
2017,01,13,02,30,-6.20
2017,01,13,02,31,-6.20
2017,01,13,02,32,-6.20
2017,01,13,02,33,-6.20
2017,01,13,02,34,-6.20
2017,01,13,02,35,-6.20
2017,01,13,02,36,-6.20
2017,01,13,02,37,-6.20
2017,01,13,02,38,-6.20
2017,01,13,02,39,-6.20
2017,01,13,02,40,-6.20
2017,01,13,02,41,-6.20
2017,01,13,02,42,-6.20
2017,01,13,02,43,-6.20
2017,01,13,02,44,-6.20
2017,01,13,02,45,-6.20
2017,01,13,02,46,-6.20
2017,01,13,02,47,-6.20
2017,01,13,02,48,-6.20
2017,01,13,02,49,-6.20
2017,01,13,02,50,-6.20
2017,01,13,02,51,-6.20
2017,01,13,02,52,-6.20
2017,01,13,02,53,-6.20
2017,01,13,02,54,-6.20
2017,01,13,02,55,-6.20
2017,01,13,02,56,-6.20
2017,01,13,02,57,-6.20
2017,01,13,02,58,-6.20
2017,01,13,02,59,-6.20
2017,01,13,03,00,-6.20
2017,01,13,03,01,-6.20
2017,01,13,03,02,-6.20
2017,01,13,03,03,-6.20
2017,01,13,03,04,-6.20
2017,01,13,03,05,-6.20
2017,01,13,03,06,-6.20
2017,01,13,03,07,-6.20
2017,01,13,03,08,-6.20
2017,01,13,03,09,-6.20
2017,01,13,03,10,-6.20
2017,01,13,03,11,-6.20
2017,01,13,03,12,-6.20
2017,01,13,03,13,-6.10
2017,01,13,03,14,-6.10
2017,01,13,03,15,-6.10
2017,01,13,03,16,-6.10
2017,01,13,03,17,-6.10
2017,01,13,03,18,-6.10
2017,01,13,03,19,-6.10
2017,01,13,03,20,-6.10
2017,01,13,03,21,-6.10
2017,01,13,03,22,-6.10
2017,01,13,03,23,-6.10
2017,01,13,03,24,-6.10
2017,01,13,03,25,-6.10
2017,01,13,03,26,-6.10
2017,01,13,03,27,-6.10
2017,01,13,03,28,-6.10
2017,01,13,03,29,-6.10
2017,01,13,03,30,-6.10
2017,01,13,03,31,-6.10
2017,01,13,03,32,-6.10
2017,01,13,03,33,-6.10
2017,01,13,03,34,-6.10
2017,01,13,03,35,-6.00
2017,01,13,03,36,-6.00
2017,01,13,03,37,-6.00
2017,01,13,03,38,-6.00
2017,01,13,03,39,-6.00
2017,01,13,03,40,-6.00
2017,01,13,03,41,-6.00
2017,01,13,03,42,-6.00
2017,01,13,03,43,-6.00
2017,01,13,03,44,-6.00
2017,01,13,03,45,-6.00
2017,01,13,03,46,-6.00
2017,01,13,03,47,-6.00
2017,01,13,03,48,-6.00
2017,01,13,03,49,-6.00
2017,01,13,03,50,-6.00
2017,01,13,03,51,-6.00
2017,01,13,03,52,-6.00
2017,01,13,03,53,-6.00
2017,01,13,03,54,-6.00
2017,01,13,03,55,-5.90
2017,01,13,03,56,-5.90
2017,01,13,03,57,-5.90
2017,01,13,03,58,-5.90
2017,01,13,03,59,-5.90
2017,01,13,04,00,-5.90
2017,01,13,04,01,-5.90
2017,01,13,04,02,-5.90
2017,01,13,04,03,-5.90
2017,01,13,04,04,-5.90
2017,01,13,04,05,-5.90
2017,01,13,04,06,-5.90
2017,01,13,04,07,-5.90
2017,01,13,04,08,-5.80
2017,01,13,04,09,-5.80
2017,01,13,04,10,-5.80
2017,01,13,04,11,-5.80
2017,01,13,04,12,-5.80
2017,01,13,04,13,-5.80
2017,01,13,04,14,-5.80
2017,01,13,04,15,-5.70
2017,01,13,04,16,-5.70
2017,01,13,04,17,-5.70
2017,01,13,04,18,-5.70
2017,01,13,04,19,-5.70
2017,01,13,04,20,-5.70
2017,01,13,04,21,-5.70
2017,01,13,04,22,-5.70
2017,01,13,04,23,-5.70
2017,01,13,04,24,-5.70
2017,01,13,04,25,-5.70
2017,01,13,04,26,-5.70
2017,01,13,04,27,-5.70
2017,01,13,04,28,-5.70
2017,01,13,04,29,-5.70
2017,01,13,04,30,-5.70
2017,01,13,04,31,-5.70
2017,01,13,04,32,-5.70
2017,01,13,04,33,-5.70
2017,01,13,04,34,-5.70
2017,01,13,04,35,-5.60
2017,01,13,04,36,-5.60
2017,01,13,04,37,-5.60
2017,01,13,04,38,-5.60
2017,01,13,04,39,-5.60
2017,01,13,04,40,-5.60
2017,01,13,04,41,-5.60
2017,01,13,04,42,-5.60
2017,01,13,04,43,-5.60
2017,01,13,04,44,-5.60
2017,01,13,04,45,-5.60
2017,01,13,04,46,-5.60
2017,01,13,04,47,-5.60
2017,01,13,04,48,-5.60
2017,01,13,04,49,-5.60
2017,01,13,04,50,-5.60
2017,01,13,04,51,-5.60
2017,01,13,04,52,-5.60
2017,01,13,04,53,-5.50
2017,01,13,04,54,-5.50
2017,01,13,04,55,-5.50
2017,01,13,04,56,-5.50
2017,01,13,04,57,-5.50
2017,01,13,04,58,-5.50
2017,01,13,04,59,-5.50
2017,01,13,05,00,-5.50
2017,01,13,05,01,-5.50
2017,01,13,05,02,-5.50
2017,01,13,05,03,-5.50
2017,01,13,05,04,-5.50
2017,01,13,05,05,-5.50
2017,01,13,05,06,-5.50
2017,01,13,05,07,-5.50
2017,01,13,05,08,-5.50
2017,01,13,05,09,-5.50
2017,01,13,05,10,-5.40
2017,01,13,05,11,-5.40
2017,01,13,05,12,-5.40
2017,01,13,05,13,-5.40
2017,01,13,05,14,-5.40
2017,01,13,05,15,-5.40
2017,01,13,05,16,-5.40
2017,01,13,05,17,-5.40
2017,01,13,05,18,-5.40
2017,01,13,05,19,-5.40
2017,01,13,05,20,-5.40
2017,01,13,05,21,-5.40
2017,01,13,05,22,-5.40
2017,01,13,05,23,-5.40
2017,01,13,05,24,-5.40
2017,01,13,05,25,-5.40
2017,01,13,05,26,-5.40
2017,01,13,05,27,-5.40
2017,01,13,05,28,-5.40
2017,01,13,05,29,-5.40
2017,01,13,05,30,-5.40
2017,01,13,05,31,-5.40
2017,01,13,05,32,-5.30
2017,01,13,05,33,-5.30
2017,01,13,05,34,-5.30
2017,01,13,05,35,-5.30
2017,01,13,05,36,-5.30
2017,01,13,05,37,-5.30
2017,01,13,05,38,-5.30
2017,01,13,05,39,-5.30
2017,01,13,05,40,-5.30
2017,01,13,05,41,-5.30
2017,01,13,05,42,-5.30
2017,01,13,05,43,-5.30
2017,01,13,05,44,-5.30
2017,01,13,05,45,-5.30
2017,01,13,05,46,-5.30
2017,01,13,05,47,-5.30
2017,01,13,05,48,-5.30
2017,01,13,05,49,-5.30
2017,01,13,05,50,-5.30
2017,01,13,05,51,-5.30
2017,01,13,05,52,-5.30
2017,01,13,05,53,-5.30
2017,01,13,05,54,-5.30
2017,01,13,05,55,-5.30
2017,01,13,05,56,-5.30
2017,01,13,05,57,-5.30
2017,01,13,05,58,-5.30
2017,01,13,05,59,-5.30
2017,01,13,06,00,-5.30
2017,01,13,06,01,-5.30
2017,01,13,06,02,-5.30
2017,01,13,06,03,-5.30
2017,01,13,06,04,-5.30
2017,01,13,06,05,-5.30
2017,01,13,06,06,-5.30
2017,01,13,06,07,-5.30
2017,01,13,06,08,-5.30
2017,01,13,06,09,-5.30
2017,01,13,06,10,-5.30
2017,01,13,06,11,-5.30
2017,01,13,06,12,-5.30
2017,01,13,06,13,-5.30
2017,01,13,06,14,-5.30
2017,01,13,06,15,-5.30
2017,01,13,06,16,-5.30
2017,01,13,06,17,-5.30
2017,01,13,06,18,-5.30
2017,01,13,06,19,-5.30
2017,01,13,06,20,-5.30
2017,01,13,06,21,-5.30
2017,01,13,06,22,-5.30
2017,01,13,06,23,-5.30
2017,01,13,06,24,-5.30
2017,01,13,06,25,-5.30
2017,01,13,06,26,-5.30
2017,01,13,06,27,-5.30
2017,01,13,06,28,-5.30
2017,01,13,06,29,-5.30
2017,01,13,06,30,-5.30
2017,01,13,06,31,-5.30
2017,01,13,06,32,-5.30
2017,01,13,06,33,-5.30
2017,01,13,06,34,-5.30
2017,01,13,06,35,-5.30
2017,01,13,06,36,-5.30
2017,01,13,06,37,-5.30
2017,01,13,06,38,-5.30
2017,01,13,06,39,-5.30
2017,01,13,06,40,-5.30
2017,01,13,06,41,-5.30
2017,01,13,06,42,-5.30
2017,01,13,06,43,-5.30
2017,01,13,06,44,-5.30
2017,01,13,06,45,-5.30
2017,01,13,06,46,-5.30
2017,01,13,06,47,-5.30
2017,01,13,06,48,-5.30
2017,01,13,06,49,-5.30
2017,01,13,06,50,-5.30
2017,01,13,06,51,-5.30
2017,01,13,06,52,-5.30
2017,01,13,06,53,-5.30
2017,01,13,06,54,-5.30
2017,01,13,06,55,-5.30
2017,01,13,06,56,-5.30
2017,01,13,06,57,-5.30
2017,01,13,06,58,-5.30
2017,01,13,06,59,-5.30
2017,01,13,07,00,-5.30
2017,01,13,07,01,-5.30
2017,01,13,07,02,-5.30
2017,01,13,07,03,-5.30
2017,01,13,07,04,-5.30
2017,01,13,07,05,-5.30
2017,01,13,07,06,-5.30
2017,01,13,07,07,-5.30
2017,01,13,07,08,-5.30
2017,01,13,07,09,-5.30
2017,01,13,07,10,-5.30
2017,01,13,07,11,-5.30
2017,01,13,07,12,-5.30
2017,01,13,07,13,-5.30
2017,01,13,07,14,-5.30
2017,01,13,07,15,-5.30
2017,01,13,07,16,-5.30
2017,01,13,07,17,-5.30
2017,01,13,07,18,-5.30
2017,01,13,07,19,-5.30
2017,01,13,07,20,-5.30
2017,01,13,07,21,-5.30
2017,01,13,07,22,-5.30
2017,01,13,07,23,-5.30
2017,01,13,07,24,-5.30
2017,01,13,07,25,-5.30
2017,01,13,07,26,-5.30
2017,01,13,07,27,-5.30
2017,01,13,07,28,-5.30
2017,01,13,07,29,-5.30
2017,01,13,07,30,-5.30
2017,01,13,07,31,-5.30
2017,01,13,07,32,-5.30
2017,01,13,07,33,-5.30
2017,01,13,07,34,-5.30
2017,01,13,07,35,-5.30
2017,01,13,07,36,-5.30
2017,01,13,07,37,-5.30
2017,01,13,07,38,-5.30
2017,01,13,07,39,-5.30
2017,01,13,07,40,-5.30
2017,01,13,07,41,-5.30
2017,01,13,07,42,-5.30
2017,01,13,07,43,-5.30
2017,01,13,07,44,-5.30
2017,01,13,07,45,-5.30
2017,01,13,07,46,-5.30
2017,01,13,07,47,-5.30
2017,01,13,07,48,-5.30
2017,01,13,07,49,-5.30
2017,01,13,07,50,-5.30
2017,01,13,07,51,-5.30
2017,01,13,07,52,-5.30
2017,01,13,07,53,-5.30
2017,01,13,07,54,-5.30
2017,01,13,07,55,-5.30
2017,01,13,07,56,-5.30
2017,01,13,07,57,-5.30
2017,01,13,07,58,-5.30
2017,01,13,07,59,-5.30
2017,01,13,08,00,-5.30
2017,01,13,08,01,-5.30
2017,01,13,08,02,-5.30
2017,01,13,08,03,-5.30
2017,01,13,08,04,-5.30
2017,01,13,08,05,-5.20
2017,01,13,08,06,-5.20
2017,01,13,08,07,-5.20
2017,01,13,08,08,-5.20
2017,01,13,08,09,-5.20
2017,01,13,08,10,-5.20
2017,01,13,08,11,-5.20
2017,01,13,08,12,-5.20
2017,01,13,08,13,-5.20
2017,01,13,08,14,-5.20
2017,01,13,08,15,-5.20
2017,01,13,08,16,-5.20
2017,01,13,08,17,-5.20
2017,01,13,08,18,-5.20
2017,01,13,08,19,-5.20
2017,01,13,08,20,-5.20
2017,01,13,08,21,-5.20
2017,01,13,08,22,-5.20
2017,01,13,08,23,-5.20
2017,01,13,08,24,-5.20
2017,01,13,08,25,-5.20
2017,01,13,08,26,-5.20
2017,01,13,08,27,-5.20
2017,01,13,08,28,-5.20
2017,01,13,08,29,-5.20
2017,01,13,08,30,-5.20
2017,01,13,08,31,-5.20
2017,01,13,08,32,-5.20
2017,01,13,08,33,-5.20
2017,01,13,08,34,-5.20
2017,01,13,08,35,-5.20
2017,01,13,08,36,-5.20
2017,01,13,08,37,-5.20
2017,01,13,08,38,-5.20
2017,01,13,08,39,-5.20
2017,01,13,08,40,-5.20
2017,01,13,08,41,-5.20
2017,01,13,08,42,-5.20
2017,01,13,08,43,-5.20
2017,01,13,08,44,-5.20
2017,01,13,08,45,-5.20
2017,01,13,08,46,-5.10
2017,01,13,08,47,-5.10
2017,01,13,08,48,-5.10
2017,01,13,08,49,-5.10
2017,01,13,08,50,-5.10
2017,01,13,08,51,-5.10
2017,01,13,08,52,-5.10
2017,01,13,08,53,-5.10
2017,01,13,08,54,-5.10
2017,01,13,08,55,-5.10
2017,01,13,08,56,-5.10
2017,01,13,08,57,-5.00
2017,01,13,08,58,-5.00
2017,01,13,08,59,-5.00
2017,01,13,09,00,-5.00
2017,01,13,09,01,-5.00
2017,01,13,09,02,-5.00
2017,01,13,09,03,-4.90
2017,01,13,09,04,-4.90
2017,01,13,09,05,-4.90
2017,01,13,09,06,-4.90
2017,01,13,09,07,-4.90
2017,01,13,09,08,-4.90
2017,01,13,09,09,-4.90
2017,01,13,09,10,-4.90
2017,01,13,09,11,-4.90
2017,01,13,09,12,-4.90
2017,01,13,09,13,-4.80
2017,01,13,09,14,-4.80
2017,01,13,09,15,-4.80
2017,01,13,09,16,-4.80
2017,01,13,09,17,-4.80
2017,01,13,09,18,-4.80
2017,01,13,09,19,-4.80
2017,01,13,09,20,-4.80
2017,01,13,09,21,-4.80
2017,01,13,09,22,-4.70
2017,01,13,09,23,-4.70
2017,01,13,09,24,-4.70
2017,01,13,09,25,-4.70
2017,01,13,09,26,-4.70
2017,01,13,09,27,-4.70
2017,01,13,09,28,-4.70
2017,01,13,09,29,-4.70
2017,01,13,09,30,-4.60
2017,01,13,09,31,-4.60
2017,01,13,09,32,-4.60
2017,01,13,09,33,-4.60
2017,01,13,09,34,-4.60
2017,01,13,09,35,-4.60
2017,01,13,09,36,-4.60
2017,01,13,09,37,-4.60
2017,01,13,09,38,-4.60
2017,01,13,09,39,-4.60
2017,01,13,09,40,-4.50
2017,01,13,09,41,-4.50
2017,01,13,09,42,-4.50
2017,01,13,09,43,-4.50
2017,01,13,09,44,-4.50
2017,01,13,09,45,-4.50
2017,01,13,09,46,-4.50
2017,01,13,09,47,-4.40
2017,01,13,09,48,-4.40
2017,01,13,09,49,-4.40
2017,01,13,09,50,-4.40
2017,01,13,09,51,-4.40
2017,01,13,09,52,-4.40
2017,01,13,09,53,-4.40
2017,01,13,09,54,-4.30
2017,01,13,09,55,-4.30
2017,01,13,09,56,-4.30
2017,01,13,09,57,-4.30
2017,01,13,09,58,-4.30
2017,01,13,09,59,-4.30
2017,01,13,10,00,-4.30
2017,01,13,10,01,-4.20
2017,01,13,10,02,-4.20
2017,01,13,10,03,-4.20
2017,01,13,10,04,-4.20
2017,01,13,10,05,-4.20
2017,01,13,10,06,-4.20
2017,01,13,10,07,-4.20
2017,01,13,10,08,-4.20
2017,01,13,10,09,-4.20
2017,01,13,10,10,-4.20
2017,01,13,10,11,-4.10
2017,01,13,10,12,-4.10
2017,01,13,10,13,-4.10
2017,01,13,10,14,-4.10
2017,01,13,10,15,-4.10
2017,01,13,10,16,-4.10
2017,01,13,10,17,-4.10
2017,01,13,10,18,-4.00
2017,01,13,10,19,-4.00
2017,01,13,10,20,-4.00
2017,01,13,10,21,-4.00
2017,01,13,10,22,-4.00
2017,01,13,10,23,-3.90
2017,01,13,10,24,-3.90
2017,01,13,10,25,-3.90
2017,01,13,10,26,-3.90
2017,01,13,10,27,-3.80
2017,01,13,10,28,-3.80
2017,01,13,10,29,-3.80
2017,01,13,10,30,-3.80
2017,01,13,10,31,-3.80
2017,01,13,10,32,-3.80
2017,01,13,10,33,-3.70
2017,01,13,10,34,-3.70
2017,01,13,10,35,-3.70
2017,01,13,10,36,-3.70
2017,01,13,10,37,-3.70
2017,01,13,10,38,-3.70
2017,01,13,10,39,-3.70
2017,01,13,10,40,-3.70
2017,01,13,10,41,-3.70
2017,01,13,10,42,-3.60
2017,01,13,10,43,-3.60
2017,01,13,10,44,-3.60
2017,01,13,10,45,-3.60
2017,01,13,10,46,-3.50
2017,01,13,10,47,-3.50
2017,01,13,10,48,-3.50
2017,01,13,10,49,-3.40
2017,01,13,10,50,-3.40
2017,01,13,10,51,-3.40
2017,01,13,10,52,-3.30
2017,01,13,10,53,-3.30
2017,01,13,10,54,-3.30
2017,01,13,10,55,-3.30
2017,01,13,10,56,-3.30
2017,01,13,10,57,-3.20
2017,01,13,10,58,-3.20
2017,01,13,10,59,-3.20
2017,01,13,11,00,-3.20
2017,01,13,11,01,-3.20
2017,01,13,11,02,-3.20
2017,01,13,11,03,-3.20
2017,01,13,11,04,-3.20
2017,01,13,11,05,-3.20
2017,01,13,11,06,-3.10
2017,01,13,11,07,-3.10
2017,01,13,11,08,-3.10
2017,01,13,11,09,-3.10
2017,01,13,11,10,-3.10
2017,01,13,11,11,-3.10
2017,01,13,11,12,-3.00
2017,01,13,11,13,-3.00
2017,01,13,11,14,-3.00
2017,01,13,11,15,-2.90
2017,01,13,11,16,-2.90
2017,01,13,11,17,-2.90
2017,01,13,11,18,-2.90
2017,01,13,11,19,-2.90
2017,01,13,11,20,-2.90
2017,01,13,11,21,-2.90
2017,01,13,11,22,-2.90
2017,01,13,11,23,-2.80
2017,01,13,11,24,-2.80
2017,01,13,11,25,-2.80
2017,01,13,11,26,-2.80
2017,01,13,11,27,-2.80
2017,01,13,11,28,-2.80
2017,01,13,11,29,-2.70
2017,01,13,11,30,-2.70
2017,01,13,11,31,-2.70
2017,01,13,11,32,-2.70
2017,01,13,11,33,-2.70
2017,01,13,11,34,-2.60
2017,01,13,11,35,-2.60
2017,01,13,11,36,-2.60
2017,01,13,11,37,-2.60
2017,01,13,11,38,-2.60
2017,01,13,11,39,-2.60
2017,01,13,11,40,-2.50
2017,01,13,11,41,-2.50
2017,01,13,11,42,-2.50
2017,01,13,11,43,-2.50
2017,01,13,11,44,-2.50
2017,01,13,11,45,-2.40
2017,01,13,11,46,-2.40
2017,01,13,11,47,-2.40
2017,01,13,11,48,-2.40
2017,01,13,11,49,-2.40
2017,01,13,11,50,-2.40
2017,01,13,11,51,-2.30
2017,01,13,11,52,-2.30
2017,01,13,11,53,-2.30
2017,01,13,11,54,-2.30
2017,01,13,11,55,-2.30
2017,01,13,11,56,-2.20
2017,01,13,11,57,-2.20
2017,01,13,11,58,-2.20
2017,01,13,11,59,-2.20
2017,01,13,12,00,-2.10
2017,01,13,12,01,-2.10
2017,01,13,12,02,-2.10
2017,01,13,12,03,-2.10
2017,01,13,12,04,-2.00
2017,01,13,12,05,-2.00
2017,01,13,12,06,-1.90
2017,01,13,12,07,-1.90
2017,01,13,12,08,-1.90
2017,01,13,12,09,-1.90
2017,01,13,12,10,-1.90
2017,01,13,12,11,-1.80
2017,01,13,12,12,-1.80
2017,01,13,12,13,-1.80
2017,01,13,12,14,-1.80
2017,01,13,12,15,-1.80
2017,01,13,12,16,-1.80
2017,01,13,12,17,-1.80
2017,01,13,12,18,-1.70
2017,01,13,12,19,-1.70
2017,01,13,12,20,-1.70
2017,01,13,12,21,-1.70
2017,01,13,12,22,-1.70
2017,01,13,12,23,-1.70
2017,01,13,12,24,-1.60
2017,01,13,12,25,-1.60
2017,01,13,12,26,-1.60
2017,01,13,12,27,-1.50
2017,01,13,12,28,-1.50
2017,01,13,12,29,-1.40
2017,01,13,12,30,-1.40
2017,01,13,12,31,-1.40
2017,01,13,12,32,-1.40
2017,01,13,12,33,-1.30
2017,01,13,12,34,-1.30
2017,01,13,12,35,-1.30
2017,01,13,12,36,-1.20
2017,01,13,12,37,-1.20
2017,01,13,12,38,-1.20
2017,01,13,12,39,-1.10
2017,01,13,12,40,-1.10
2017,01,13,12,41,-1.10
2017,01,13,12,42,-1.10
2017,01,13,12,43,-1.00
2017,01,13,12,44,-1.00
2017,01,13,12,45,-0.90
2017,01,13,12,46,-0.90
2017,01,13,12,47,-0.90
2017,01,13,12,48,-0.90
2017,01,13,12,49,-0.80
2017,01,13,12,50,-0.80
2017,01,13,12,51,-0.80
2017,01,13,12,52,-0.80
2017,01,13,12,53,-0.80
2017,01,13,12,54,-0.70
2017,01,13,12,55,-0.70
2017,01,13,12,56,-0.70
2017,01,13,12,57,-0.70
2017,01,13,12,58,-0.70
2017,01,13,12,59,-0.60
2017,01,13,13,00,-0.60
2017,01,13,13,01,-0.60
2017,01,13,13,02,-0.60
2017,01,13,13,03,-0.60
2017,01,13,13,04,-0.50
2017,01,13,13,05,-0.50
2017,01,13,13,06,-0.40
2017,01,13,13,07,-0.40
2017,01,13,13,08,-0.40
2017,01,13,13,09,-0.30
2017,01,13,13,10,-0.30
2017,01,13,13,11,-0.30
2017,01,13,13,12,-0.20
2017,01,13,13,13,-0.20
2017,01,13,13,14,-0.20
2017,01,13,13,15,-0.20
2017,01,13,13,16,-0.10
2017,01,13,13,17,-0.10
2017,01,13,13,18,-0.10
2017,01,13,13,19,-0.10
2017,01,13,13,20,-0.10
2017,01,13,13,21,0.00
2017,01,13,13,22,0.00
2017,01,13,13,23,0.00
2017,01,13,13,24,0.00
2017,01,13,13,25,0.10
2017,01,13,13,26,0.10
2017,01,13,13,27,0.10
2017,01,13,13,28,0.10
2017,01,13,13,29,0.10
2017,01,13,13,30,0.10
2017,01,13,13,31,0.20
2017,01,13,13,32,0.20
2017,01,13,13,33,0.20
2017,01,13,13,34,0.20
2017,01,13,13,35,0.20
2017,01,13,13,36,0.20
2017,01,13,13,37,0.20
2017,01,13,13,38,0.20
2017,01,13,13,39,0.20
2017,01,13,13,40,0.20
2017,01,13,13,41,0.20
2017,01,13,13,42,0.30
2017,01,13,13,43,0.30
2017,01,13,13,44,0.30
2017,01,13,13,45,0.30
2017,01,13,13,46,0.30
2017,01,13,13,47,0.30
2017,01,13,13,48,0.30
2017,01,13,13,49,0.30
2017,01,13,13,50,0.30
2017,01,13,13,51,0.30
2017,01,13,13,52,0.30
2017,01,13,13,53,0.30
2017,01,13,13,54,0.30
2017,01,13,13,55,0.30
2017,01,13,13,56,0.40
2017,01,13,13,57,0.40
2017,01,13,13,58,0.40
2017,01,13,13,59,0.40
2017,01,13,14,00,0.40
2017,01,13,14,01,0.40
2017,01,13,14,02,0.40
2017,01,13,14,03,0.40
2017,01,13,14,04,0.40
2017,01,13,14,05,0.50
2017,01,13,14,06,0.50
2017,01,13,14,07,0.50
2017,01,13,14,08,0.50
2017,01,13,14,09,0.50
2017,01,13,14,10,0.50
2017,01,13,14,11,0.50
2017,01,13,14,12,0.60
2017,01,13,14,13,0.60
2017,01,13,14,14,0.60
2017,01,13,14,15,0.60
2017,01,13,14,16,0.60
2017,01,13,14,17,0.60
2017,01,13,14,18,0.60
2017,01,13,14,19,0.60
2017,01,13,14,20,0.60
2017,01,13,14,21,0.60
2017,01,13,14,22,0.60
2017,01,13,14,23,0.60
2017,01,13,14,24,0.60
2017,01,13,14,25,0.60
2017,01,13,14,26,0.60
2017,01,13,14,27,0.60
2017,01,13,14,28,0.70
2017,01,13,14,29,0.70
2017,01,13,14,30,0.70
2017,01,13,14,31,0.70
2017,01,13,14,32,0.70
2017,01,13,14,33,0.70
2017,01,13,14,34,0.70
2017,01,13,14,35,0.70
2017,01,13,14,36,0.70
2017,01,13,14,37,0.70
2017,01,13,14,38,0.70
2017,01,13,14,39,0.70
2017,01,13,14,40,0.70
2017,01,13,14,41,0.70
2017,01,13,14,42,0.70
2017,01,13,14,43,0.70
2017,01,13,14,44,0.70
2017,01,13,14,45,0.70
2017,01,13,14,46,0.70
2017,01,13,14,47,0.70
2017,01,13,14,48,0.70
2017,01,13,14,49,0.70
2017,01,13,14,50,0.70
2017,01,13,14,51,0.70
2017,01,13,14,52,0.70
2017,01,13,14,53,0.70
2017,01,13,14,54,0.70
2017,01,13,14,55,0.70
2017,01,13,14,56,0.70
2017,01,13,14,57,0.70
2017,01,13,14,58,0.70
2017,01,13,14,59,0.70
2017,01,13,15,00,0.70
2017,01,13,15,01,0.70
2017,01,13,15,02,0.70
2017,01,13,15,03,0.70
2017,01,13,15,04,0.70
2017,01,13,15,05,0.70
2017,01,13,15,06,0.70
2017,01,13,15,07,0.70
2017,01,13,15,08,0.70
2017,01,13,15,09,0.70
2017,01,13,15,10,0.70
2017,01,13,15,11,0.70
2017,01,13,15,12,0.70
2017,01,13,15,13,0.70
2017,01,13,15,14,0.70
2017,01,13,15,15,0.70
2017,01,13,15,16,0.70
2017,01,13,15,17,0.70
2017,01,13,15,18,0.70
2017,01,13,15,19,0.70
2017,01,13,15,20,0.70
2017,01,13,15,21,0.70
2017,01,13,15,22,0.70
2017,01,13,15,23,0.70
2017,01,13,15,24,0.70
2017,01,13,15,25,0.70
2017,01,13,15,26,0.70
2017,01,13,15,27,0.70
2017,01,13,15,28,0.70
2017,01,13,15,29,0.70
2017,01,13,15,30,0.70
2017,01,13,15,31,0.70
2017,01,13,15,32,0.70
2017,01,13,15,33,0.70
2017,01,13,15,34,0.70
2017,01,13,15,35,0.70
2017,01,13,15,36,0.70
2017,01,13,15,37,0.70
2017,01,13,15,38,0.70
2017,01,13,15,39,0.70
2017,01,13,15,40,0.70
2017,01,13,15,41,0.70
2017,01,13,15,42,0.70
2017,01,13,15,43,0.70
2017,01,13,15,44,0.70
2017,01,13,15,45,0.70
2017,01,13,15,46,0.80
2017,01,13,15,47,0.80
2017,01,13,15,48,0.80
2017,01,13,15,49,0.80
2017,01,13,15,50,0.80
2017,01,13,15,51,0.80
2017,01,13,15,52,0.80
2017,01,13,15,53,0.70
2017,01,13,15,54,0.70
2017,01,13,15,55,0.70
2017,01,13,15,56,0.70
2017,01,13,15,57,0.80
2017,01,13,15,58,0.70
2017,01,13,15,59,0.70
2017,01,13,16,00,0.70
2017,01,13,16,01,0.70
2017,01,13,16,02,0.70
2017,01,13,16,03,0.70
2017,01,13,16,04,0.70
2017,01,13,16,05,0.70
2017,01,13,16,06,0.70
2017,01,13,16,07,0.70
2017,01,13,16,08,0.70
2017,01,13,16,09,0.60
2017,01,13,16,10,0.60
2017,01,13,16,11,0.60
2017,01,13,16,12,0.60
2017,01,13,16,13,0.60
2017,01,13,16,14,0.60
2017,01,13,16,15,0.60
2017,01,13,16,16,0.60
2017,01,13,16,17,0.60
2017,01,13,16,18,0.60
2017,01,13,16,19,0.60
2017,01,13,16,20,0.60
2017,01,13,16,21,0.60
2017,01,13,16,22,0.60
2017,01,13,16,23,0.60
2017,01,13,16,24,0.60
2017,01,13,16,25,0.60
2017,01,13,16,26,0.50
2017,01,13,16,27,0.50
2017,01,13,16,28,0.50
2017,01,13,16,29,0.50
2017,01,13,16,30,0.40
2017,01,13,16,31,0.40
2017,01,13,16,32,0.40
2017,01,13,16,33,0.40
2017,01,13,16,34,0.40
2017,01,13,16,35,0.30
2017,01,13,16,36,0.30
2017,01,13,16,37,0.30
2017,01,13,16,38,0.30
2017,01,13,16,39,0.30
2017,01,13,16,40,0.20
2017,01,13,16,41,0.20
2017,01,13,16,42,0.20
2017,01,13,16,43,0.20
2017,01,13,16,44,0.20
2017,01,13,16,45,0.10
2017,01,13,16,46,0.10
2017,01,13,16,47,0.10
2017,01,13,16,48,0.10
2017,01,13,16,49,0.10
2017,01,13,16,50,0.10
2017,01,13,16,51,0.10
2017,01,13,16,52,0.00
2017,01,13,16,53,0.00
2017,01,13,16,54,0.00
2017,01,13,16,55,-0.10
2017,01,13,16,56,-0.10
2017,01,13,16,57,-0.10
2017,01,13,16,58,-0.10
2017,01,13,16,59,-0.10
2017,01,13,17,00,-0.10
2017,01,13,17,01,-0.10
2017,01,13,17,02,-0.20
2017,01,13,17,03,-0.20
2017,01,13,17,04,-0.20
2017,01,13,17,05,-0.20
2017,01,13,17,06,-0.20
2017,01,13,17,07,-0.20
2017,01,13,17,08,-0.20
2017,01,13,17,09,-0.20
2017,01,13,17,10,-0.20
2017,01,13,17,11,-0.30
2017,01,13,17,12,-0.30
2017,01,13,17,13,-0.30
2017,01,13,17,14,-0.30
2017,01,13,17,15,-0.30
2017,01,13,17,16,-0.30
2017,01,13,17,17,-0.30
2017,01,13,17,18,-0.30
2017,01,13,17,19,-0.30
2017,01,13,17,20,-0.30
2017,01,13,17,21,-0.30
2017,01,13,17,22,-0.30
2017,01,13,17,23,-0.30
2017,01,13,17,24,-0.30
2017,01,13,17,25,-0.30
2017,01,13,17,26,-0.30
2017,01,13,17,27,-0.30
2017,01,13,17,28,-0.40